Location: *
(45.5667°S, 177.5167°W)
Time: 16:24:41
(UTC+00:00)

Cosmos 1777 Rocket - Pass Details

Date: 29 May 2022
Orbit: 757 x 776 km, 74.0° (Epoch: 28 June)

Event Time Altitude Azimuth Distance (km) Brightness Sun altitude
Rises 06:32:07 0° 202° (SSW) 3,263 7.4 -22.9°
Reaches altitude 10° 06:34:31 10° 201° (SSW) 2,328 6.6 -23.3°
Maximum altitude 06:39:49 88° 114° (ESE) 775 3.9 -24.2°
Enters shadow 06:42:27 30° 21° (NNE) 1,335 5.1 -24.7°
